| DS18B20 | SHTC3 | PZEM-004T | WiFi | ||||||||
|---|---|---|---|---|---|---|---|---|---|---|---|
| ID | Date d/m/Y & Time | data1 สูง | data2 ต่ำ | data3 นอก | temp pcb | hum pcb | Volt | Amp | Watt | rssi | Time |
| 15242 | 23/08/2026 11:01:55 | 33.4  | 31.7  | 34.0  | 34.2  | 61.4  | 231.0  | 0.04  | 4.6  | -76  | 11:01 |
| 15241 | 23/08/2026 10:57:11 | 33.4  | 31.6  | 33.7  | 34.1  | 61.3  | 230.9  | 0.04  | 4.6  | -77  | 10:57 |
| 15240 | 23/08/2026 10:52:28 | 33.3  | 31.6  | 33.7  | 34.1  | 61.5  | 231.1  | 0.04  | 4.6  | -77  | 10:52 |
| 15239 | 23/08/2026 10:47:45 | 33.2  | 31.5  | 33.7  | 34.1  | 61.7  | 230.8  | 0.04  | 4.6  | -75  | 10:47 |
| 15238 | 23/08/2026 10:43:01 | 33.1  | 31.4  | 33.9  | 34.1  | 61.7  | 231.1  | 0.04  | 4.6  | -74  | 10:43 |
| 15237 | 23/08/2026 10:38:18 | 33.1  | 31.4  | 33.7  | 34.0  | 61.8  | 231.9  | 0.04  | 4.6  | -79  | 10:38 |
| 15236 | 23/08/2026 10:33:35 | 32.9  | 31.3  | 33.6  | 33.9  | 61.9  | 232.2  | 0.04  | 4.6  | -78  | 10:33 |
| 15235 | 23/08/2026 10:28:51 | 32.8  | 31.2  | 33.4  | 33.6  | 62.1  | 231.3  | 0.04  | 4.6  | -78  | 10:28 |
| 15234 | 23/08/2026 10:24:08 | 32.8  | 31.2  | 33.6  | 33.6  | 62.2  | 232.0  | 0.04  | 4.6  | -78  | 10:24 |
| 15233 | 23/08/2026 10:19:22 | 32.7  | 31.1  | 33.2  | 33.5  | 62.5  | 231.5  | 0.04  | 4.6  | -77  | 10:19 |
| 15232 | 23/08/2026 10:14:39 | 32.6  | 31.0  | 33.1  | 33.5  | 62.6  | 231.7  | 0.04  | 4.6  | -79  | 10:14 |
| 15231 | 23/08/2026 10:09:55 | 32.4  | 30.9  | 33.0  | 33.4  | 62.8  | 231.7  | 0.04  | 4.6  | -79  | 10:09 |
| 15230 | 23/08/2026 10:05:12 | 32.3  | 30.9  | 32.7  | 33.1  | 62.7  | 231.9  | 0.04  | 4.6  | -79  | 10:05 |
| 15229 | 23/08/2026 10:00:29 | 32.2  | 30.8  | 32.7  | 33.1  | 62.9  | 231.8  | 0.04  | 4.6  | -79  | 10:00 |
| 15228 | 23/08/2026 09:55:45 | 32.2  | 30.8  | 32.4  | 33.0  | 63.0  | 231.4  | 0.04  | 4.6  | -79  | 09:55 |
| 15227 | 23/08/2026 09:51:00 | 32.1  | 30.7  | 32.7  | 32.9  | 63.0  | 231.3  | 0.04  | 4.6  | -80  | 09:51 |
| 15226 | 23/08/2026 09:46:17 | 32.0  | 30.6  | 32.5  | 33.0  | 63.1  | 232.0  | 0.04  | 4.6  | -79  | 09:46 |
| 15225 | 23/08/2026 09:41:34 | 31.9  | 30.6  | 32.4  | 32.7  | 63.2  | 231.4  | 0.04  | 4.6  | -77  | 09:41 |
| 15224 | 23/08/2026 09:36:50 | 31.8  | 30.5  | 31.9  | 32.7  | 63.3  | 231.7  | 0.04  | 4.6  | -76  | 09:36 |
| 15223 | 23/08/2026 09:32:06 | 31.7  | 30.4  | 32.2  | 32.6  | 63.6  | 231.2  | 0.04  | 4.6  | -76  | 09:32 |
| 15222 | 23/08/2026 09:27:23 | 31.6  | 30.4  | 32.0  | 32.4  | 63.5  | 231.2  | 0.04  | 4.6  | -77  | 09:27 |
| 15221 | 23/08/2026 09:22:40 | 31.5  | 30.3  | 32.0  | 32.5  | 63.9  | 228.2  | 0.04  | 4.6  | -76  | 09:22 |
| 15220 | 23/08/2026 09:17:56 | 31.4  | 30.2  | 31.7  | 32.1  | 64.0  | 231.7  | 0.04  | 4.6  | -79  | 09:17 |
| 15219 | 23/08/2026 09:13:13 | 31.2  | 30.2  | 31.4  | 32.1  | 64.1  | 231.1  | 0.04  | 4.6  | -76  | 09:13 |